Location: Bari
(41.1330°N, 16.8500°E)
Time: 01:50:13
(UTC+02:00)

ISS - Pass Details

Date: 12 May 2021
Orbit: 417 x 422 km, 51.6° (Epoch: 14 June)

Event Time Altitude Azimuth Distance (km) Brightness Sun altitude
Exits shadow 01:17:37 14° 14° (NNE) 1,277 -0.5 -30.4°
Drops below altitude 10° 01:18:38 10° 30° (NNE) 1,508 -0.2 -30.3°
Sets 01:21:16 0° 52° (NE) 2,375 0.7 -30.3°
